6°C
Woerden, The Nederlands
Taal:  Nederlands
Updated27/03/2019 02:15 
 
Station Historical Data
Daily Summary for January 13, 2019 Units:  English    Metric   Both
Next Day »
Daily Weekly Monthly Yearly Custom
  High: Low: Average:
Temperature: 49.8 °F 46.2 °F 48.2 °F
Dew Point: 45.5 °F 41.2 °F 43.9 °F
Humidity: 87% 82% 85%
Wind Speed: 33.4mph 10.4mph 20.2mph
Wind Gust: 22.8mph - -
Wind- - West
Pressure: 29.9 in 29.6 in -
Precipitation: 0.19 in    
Historical Graphs
 
 
Tabular Data for January 13, 2019
Time Temperature Dew Point Pressure Wind Wind Speed Wind Gust Humidity Rainfall Rate (Hourly) solar Conditions
00:04 46.8 °F 42.8 °F 29.9 in West 11.5 mph 9.7 mph 86% 0 in 0.00 W/m2 RA
00:09 46.8 °F 42.6 °F 29.9 in West 13 mph 11 mph 86% 0 in 0.00 W/m2 RA
00:14 46.6 °F 43 °F 29.9 in West 15 mph 8.6 mph 87% 0 in 0.00 W/m2 CLR
00:19 46.6 °F 42.8 °F 29.9 in West 12.7 mph 9.9 mph 87% 0 in 0.00 W/m2 CLR
00:24 46.6 °F 42.8 °F 29.9 in West 13.8 mph 10.1 mph 87% 0 in 0.00 W/m2 CLR
00:29 46.6 °F 42.8 °F 29.9 in WSW 12.7 mph 10.4 mph 87% 0 in 0.00 W/m2 CLR
00:34 46.4 °F 42.6 °F 29.9 in WNW 12 mph 9.4 mph 87% 0 in 0.00 W/m2 CLR
00:39 46.4 °F 42.6 °F 29.9 in WNW 12.7 mph 10 mph 87% 0 in 0.00 W/m2 CLR
00:44 46.2 °F 42.6 °F 29.9 in West 13.8 mph 10.6 mph 87% 0 in 0.00 W/m2 CLR
00:49 46.2 °F 42.6 °F 29.9 in West 12.7 mph 9.3 mph 87% 0.01 in 0.00 W/m2 RA
00:54 46.2 °F 42.4 °F 29.9 in West 15 mph 10.3 mph 87% 0.01 in 0.00 W/m2 RA
00:59 46.2 °F 42.4 °F 29.9 in West 13 mph 10.5 mph 87% 0.01 in 0.00 W/m2
01:04 46.2 °F 42.4 °F 29.9 in West 17.3 mph 12 mph 87% 0.01 in 0.00 W/m2
01:09 46.2 °F 42.4 °F 29.9 in WNW 15 mph 8.8 mph 87% 0.01 in 0.00 W/m2
01:14 46.2 °F 42.3 °F 29.9 in WSW 10.4 mph 7 mph 86% 0.01 in 0.00 W/m2
01:19 46.2 °F 42.3 °F 29.9 in WSW 13 mph 10.6 mph 86% 0.02 in 0.00 W/m2 RA
01:24 46.2 °F 42.3 °F 29.9 in West 11.5 mph 9 mph 86% 0.02 in 0.00 W/m2 RA
01:29 46.2 °F 42.3 °F 29.9 in West 13.8 mph 10 mph 86% 0.02 in 0.00 W/m2 RA
01:34 46.2 °F 42.3 °F 29.9 in WSW 12 mph 9.1 mph 86% 0.02 in 0.00 W/m2 RA
01:39 46.2 °F 42.3 °F 29.9 in West 12.7 mph 9.4 mph 86% 0.02 in 0.00 W/m2
01:44 46.2 °F 42.3 °F 29.9 in West 10.4 mph 8.5 mph 86% 0.02 in 0.00 W/m2
01:49 46.2 °F 42.3 °F 29.9 in West 10.4 mph 8.3 mph 86% 0.02 in 0.00 W/m2
01:54 46.2 °F 42.3 °F 29.9 in WSW 11.5 mph 9.5 mph 86% 0.02 in 0.00 W/m2
01:59 46.2 °F 42.3 °F 29.9 in WSW 11.5 mph 7.8 mph 86% 0.02 in 0.00 W/m2
02:04 46.2 °F 42.3 °F 29.9 in West 12.7 mph 9.2 mph 86% 0.02 in 0.00 W/m2
02:09 46.4 °F 42.4 °F 29.9 in West 11.5 mph 8.2 mph 86% 0.02 in 0.00 W/m2
02:14 46.4 °F 42.4 °F 29.9 in WNW 11.5 mph 9.7 mph 86% 0.02 in 0.00 W/m2 RA
02:19 46.4 °F 42.4 °F 29.9 in West 12.7 mph 8.7 mph 86% 0.02 in 0.00 W/m2 RA
02:24 46.4 °F 42.4 °F 29.8 in West 13.8 mph 9.9 mph 86% 0.02 in 0.00 W/m2
02:29 46.6 °F 42.4 °F 29.8 in WSW 11.5 mph 8.3 mph 86% 0.01 in 0.00 W/m2
02:34 46.6 °F 42.4 °F 29.8 in West 13.8 mph 10.9 mph 86% 0.01 in 0.00 W/m2
02:39 46.6 °F 42.6 °F 29.8 in West 11.5 mph 10.4 mph 86% 0.01 in 0.00 W/m2
02:44 46.8 °F 42.6 °F 29.8 in West 13.8 mph 10.9 mph 86% 0.01 in 0.00 W/m2
02:49 46.8 °F 42.6 °F 29.8 in West 13.8 mph 10.4 mph 86% 0.01 in 0.00 W/m2
02:54 46.8 °F 42.6 °F 29.8 in WNW 13.8 mph 9.8 mph 86% 0.01 in 0.00 W/m2
02:59 46.8 °F 42.6 °F 29.8 in West 12.7 mph 9.5 mph 86% 0.01 in 0.00 W/m2
03:04 46.8 °F 42.8 °F 29.8 in West 13.8 mph 8.9 mph 86% 0.01 in 0.00 W/m2
03:09 46.8 °F 42.8 °F 29.8 in West 13.8 mph 9.2 mph 86% 0.01 in 0.00 W/m2
03:14 46.8 °F 42.6 °F 29.8 in West 13 mph 11.1 mph 86% 0 in 0.00 W/m2 CLR
03:19 46.8 °F 42.8 °F 29.8 in West 13 mph 11.4 mph 86% 0 in 0.00 W/m2 CLR
03:24 46.8 °F 42.8 °F 29.8 in West 11.5 mph 8.6 mph 86% 0 in 0.00 W/m2 CLR
03:29 46.8 °F 42.6 °F 29.8 in West 12.7 mph 8.1 mph 86% 0 in 0.00 W/m2 CLR
03:34 46.8 °F 42.6 °F 29.8 in West 11.5 mph 8.3 mph 86% 0.01 in 0.00 W/m2 RA
03:39 46.8 °F 42.6 °F 29.8 in West 11.5 mph 8.4 mph 86% 0.01 in 0.00 W/m2 RA
03:44 46.8 °F 42.6 °F 29.8 in West 11.5 mph 7.9 mph 86% 0.01 in 0.00 W/m2
03:49 46.8 °F 42.8 °F 29.8 in West 11.5 mph 10.7 mph 86% 0.02 in 0.00 W/m2 RA
03:54 46.8 °F 42.8 °F 29.8 in West 10.4 mph 9.5 mph 86% 0.02 in 0.00 W/m2 RA
03:59 46.8 °F 42.8 °F 29.8 in West 12 mph 10.5 mph 86% 0.02 in 0.00 W/m2
04:04 46.9 °F 43 °F 29.8 in West 10.4 mph 10 mph 86% 0.02 in 0.00 W/m2
04:09 46.9 °F 43 °F 29.8 in WSW 11.5 mph 8 mph 86% 0.02 in 0.00 W/m2
04:14 46.9 °F 43 °F 29.8 in WSW 11.5 mph 10.4 mph 86% 0.02 in 0.00 W/m2
04:19 47.1 °F 43.2 °F 29.8 in West 11.5 mph 11.8 mph 86% 0.02 in 0.00 W/m2
04:24 47.1 °F 43.2 °F 29.8 in WSW 11.5 mph 11 mph 86% 0.02 in 0.00 W/m2
04:29 47.1 °F 43.2 °F 29.8 in West 16.1 mph 11.8 mph 86% 0.02 in 0.00 W/m2 RA
04:34 47.3 °F 43 °F 29.8 in WSW 13 mph 10.2 mph 85% 0.02 in 0.00 W/m2 RA
04:39 47.5 °F 43.2 °F 29.8 in West 15 mph 11.8 mph 85% 0.02 in 0.00 W/m2
04:44 47.5 °F 42.4 °F 29.8 in West 17.3 mph 9.6 mph 83% 0.02 in 0.00 W/m2
04:49 47.5 °F 43.2 °F 29.8 in WSW 12.7 mph 10.3 mph 85% 0.01 in 0.00 W/m2
04:54 47.5 °F 43.2 °F 29.8 in West 15 mph 11.6 mph 85% 0.01 in 0.00 W/m2
04:59 47.5 °F 43.2 °F 29.8 in WSW 18.4 mph 12.2 mph 85% 0.01 in 0.00 W/m2
05:04 47.5 °F 43.2 °F 29.8 in WSW 12.7 mph 10 mph 85% 0.01 in 0.00 W/m2
05:09 47.5 °F 43.2 °F 29.8 in West 16.1 mph 12.2 mph 85% 0.01 in 0.00 W/m2
05:14 47.5 °F 43.2 °F 29.8 in WSW 15 mph 11.7 mph 85% 0.01 in 0.00 W/m2
05:19 47.7 °F 43.3 °F 29.8 in WSW 19.6 mph 10.9 mph 85% 0.01 in 0.00 W/m2
05:24 47.7 °F 43.3 °F 29.8 in WNW 16 mph 10.9 mph 85% 0.02 in 0.00 W/m2 RA
05:29 47.7 °F 43.3 °F 29.8 in West 18.4 mph 12.4 mph 85% 0.01 in 0.00 W/m2 RA
05:34 47.7 °F 43.3 °F 29.8 in West 13.8 mph 11.7 mph 85% 0.02 in 0.00 W/m2 RA
05:39 47.7 °F 43.3 °F 29.8 in West 19.6 mph 12.8 mph 85% 0.02 in 0.00 W/m2 RA
05:44 47.8 °F 43.5 °F 29.8 in West 18.4 mph 11.3 mph 85% 0.02 in 0.00 W/m2
05:49 47.8 °F 43.5 °F 29.8 in WSW 17.3 mph 12.8 mph 85% 0.02 in 0.00 W/m2
05:54 47.8 °F 43.5 °F 29.8 in WSW 26.5 mph 14.6 mph 85% 0.02 in 0.00 W/m2
05:59 47.8 °F 43.5 °F 29.8 in West 19.6 mph 17.3 mph 85% 0.02 in 0.00 W/m2 RA
06:04 47.8 °F 43.5 °F 29.8 in WNW 21.9 mph 15.5 mph 85% 0.02 in 0.00 W/m2 RA
06:09 48 °F 43.7 °F 29.8 in West 19.6 mph 14.4 mph 85% 0.03 in 0.00 W/m2 RA
06:14 48 °F 43.7 °F 29.8 in West 19.6 mph 15.8 mph 85% 0.03 in 0.00 W/m2 RA
06:19 48 °F 43.9 °F 29.8 in NW 28.8 mph 14.5 mph 85% 0.04 in 0.00 W/m2 RA
06:24 48 °F 43.9 °F 29.8 in West 20.7 mph 14 mph 85% 0.04 in 0.00 W/m2 RA
06:29 48 °F 43.9 °F 29.8 in WSW 21.9 mph 16.6 mph 85% 0.04 in 0.00 W/m2 RA
06:34 48 °F 43.9 °F 29.8 in West 20.7 mph 17.8 mph 85% 0.04 in 0.00 W/m2 RA
06:39 48 °F 43.9 °F 29.8 in WNW 19.6 mph 13.4 mph 85% 0.05 in 0.00 W/m2 RA
06:44 48 °F 43.9 °F 29.8 in WNW 20.7 mph 12.8 mph 85% 0.05 in 0.00 W/m2 RA
06:49 48 °F 43.9 °F 29.8 in WNW 20.7 mph 12.5 mph 85% 0.06 in 0.00 W/m2 RA
06:54 48.2 °F 43.9 °F 29.8 in West 23 mph 12.8 mph 85% 0.06 in 0.00 W/m2 RA
06:59 48.2 °F 43.9 °F 29.8 in WSW 21 mph 14.6 mph 85% 0.05 in 0.00 W/m2
07:04 48.4 °F 44.1 °F 29.7 in WSW 19.6 mph 15.5 mph 85% 0.05 in 0.00 W/m2
07:09 48.4 °F 44.1 °F 29.7 in West 18.4 mph 14.6 mph 85% 0.05 in 0.00 W/m2 RA
07:14 48.4 °F 44.1 °F 29.7 in West 19.6 mph 15.3 mph 85% 0.05 in 0.00 W/m2 RA
07:19 48.4 °F 44.1 °F 29.7 in West 21.9 mph 14.9 mph 85% 0.04 in 0.00 W/m2
07:24 48.4 °F 44.1 °F 29.7 in West 19.6 mph 15.6 mph 85% 0.03 in 0.00 W/m2
07:29 48.6 °F 44.4 °F 29.7 in West 21.9 mph 16.5 mph 86% 0.03 in 0.00 W/m2
07:34 48.7 °F 44.8 °F 29.7 in West 20 mph 14.4 mph 86% 0.02 in 0.00 W/m2
07:39 48.7 °F 44.8 °F 29.7 in West 25.3 mph 15.1 mph 86% 0.02 in 0.00 W/m2
07:44 48.9 °F 45 °F 29.7 in WNW 20.7 mph 17.2 mph 86% 0.02 in 0.00 W/m2
07:49 48.9 °F 45 °F 29.7 in West 21 mph 15.8 mph 86% 0.01 in 0.00 W/m2
07:54 49.3 °F 45.1 °F 29.7 in WNW 24.2 mph 12.4 mph 86% 0.01 in 0.00 W/m2
07:59 49.3 °F 45.1 °F 29.7 in WSW 21.9 mph 15.9 mph 86% 0.02 in 0.00 W/m2 RA
08:04 49.3 °F 45.1 °F 29.7 in WNW 19.6 mph 14.2 mph 86% 0.02 in 0.00 W/m2 RA
08:09 49.3 °F 45.1 °F 29.7 in West 18.4 mph 12.7 mph 86% 0.01 in 0.00 W/m2
08:14 49.3 °F 45.1 °F 29.7 in West 19.6 mph 14.6 mph 86% 0.01 in 0.00 W/m2
08:19 49.3 °F 45.1 °F 29.7 in WNW 21.9 mph 15.8 mph 86% 0.01 in 0.00 W/m2
08:24 49.3 °F 45.1 °F 29.7 in West 24.2 mph 15.1 mph 86% 0.01 in 0.00 W/m2
08:29 49.3 °F 45.1 °F 29.7 in West 21.9 mph 15.6 mph 86% 0.01 in 0.00 W/m2
08:34 49.3 °F 45 °F 29.7 in West 17.3 mph 13.9 mph 85% 0.01 in 0.00 W/m2
08:39 49.3 °F 45 °F 29.7 in WNW 23 mph 17.6 mph 85% 0.01 in 0.00 W/m2
08:44 49.3 °F 45.3 °F 29.7 in West 23 mph 14.6 mph 86% 0.01 in 0.00 W/m2
08:49 49.3 °F 45.3 °F 29.7 in West 21.9 mph 16.1 mph 86% 0.01 in 0.00 W/m2 OVC
08:54 49.3 °F 45 °F 29.7 in West 19.6 mph 12.7 mph 85% 0.01 in 0.00 W/m2 OVC
08:59 49.3 °F 45 °F 29.7 in West 19.6 mph 19.5 mph 85% 0 in 0.00 W/m2 OVC
09:04 49.3 °F 45 °F 29.7 in West 25.3 mph 15 mph 85% 0 in 5.00 W/m2 OVC
09:09 49.1 °F 44.8 °F 29.7 in West 21.9 mph 15.7 mph 85% 0 in 9.00 W/m2 OVC
09:14 49.3 °F 45 °F 29.7 in West 20.7 mph 16.7 mph 85% 0 in 14.00 W/m2 OVC
09:19 49.3 °F 45 °F 29.7 in WSW 21.9 mph 15.6 mph 85% 0 in 18.00 W/m2 OVC
09:24 49.3 °F 45 °F 29.7 in WSW 18.4 mph 15.9 mph 85% 0 in 16.00 W/m2 OVC
09:29 49.3 °F 45 °F 29.7 in WSW 20.7 mph 12.8 mph 85% 0 in 14.00 W/m2 OVC
09:34 49.1 °F 44.8 °F 29.7 in WSW 19.6 mph 14.5 mph 85% 0 in 14.00 W/m2 OVC
09:39 49.3 °F 45 °F 29.7 in West 18.4 mph 14.3 mph 85% 0 in 16.00 W/m2 OVC
09:44 49.1 °F 44.8 °F 29.7 in West 19.6 mph 15.8 mph 85% 0 in 14.00 W/m2 OVC
09:49 49.1 °F 44.8 °F 29.7 in West 20.7 mph 16.2 mph 85% 0 in 14.00 W/m2 OVC
09:54 49.1 °F 44.8 °F 29.7 in West 21.9 mph 13.1 mph 85% 0 in 14.00 W/m2 BKN
09:59 48.9 °F 45 °F 29.7 in West 22 mph 16.3 mph 86% 0 in 19.00 W/m2 SCT
10:04 49.1 °F 45.1 °F 29.7 in WSW 24.2 mph 17.4 mph 86% 0 in 14.00 W/m2 CLR
10:09 49.1 °F 45.1 °F 29.7 in WNW 18.4 mph 14.1 mph 86% 0 in 21.00 W/m2 CLR
10:14 48.9 °F 45 °F 29.7 in West 23 mph 16.2 mph 86% 0 in 25.00 W/m2 CLR
10:19 48.7 °F 44.8 °F 29.7 in West 28.8 mph 16.4 mph 86% 0 in 25.00 W/m2 CLR
10:24 48.6 °F 44.6 °F 29.7 in West 18.4 mph 15.4 mph 86% 0 in 23.00 W/m2 FEW
10:29 48.4 °F 44.8 °F 29.7 in West 18 mph 15.7 mph 87% 0 in 25.00 W/m2 SCT
10:34 48.4 °F 44.6 °F 29.7 in West 19 mph 16.7 mph 87% 0.01 in 26.00 W/m2 RA
10:39 48.2 °F 44.2 °F 29.7 in West 21.9 mph 16.4 mph 86% 0.01 in 23.00 W/m2 RA
10:44 48 °F 44.1 °F 29.7 in West 19.6 mph 12.2 mph 86% 0.01 in 26.00 W/m2 BKN
10:49 48 °F 44.1 °F 29.7 in West 20.7 mph 14.6 mph 86% 0.01 in 37.00 W/m2 BKN
10:54 48 °F 44.1 °F 29.7 in West 26.5 mph 14.2 mph 86% 0.01 in 21.00 W/m2 BKN
10:59 48 °F 44.1 °F 29.7 in West 21.9 mph 14.4 mph 86% 0.01 in 25.00 W/m2 BKN
11:04 48 °F 44.1 °F 29.7 in WSW 19 mph 16.4 mph 86% 0.01 in 32.00 W/m2 BKN
11:09 48 °F 44.1 °F 29.7 in West 23 mph 16.8 mph 86% 0.02 in 30.00 W/m2 RA
11:14 48.2 °F 44.2 °F 29.7 in West 21.9 mph 17.1 mph 86% 0.02 in 25.00 W/m2 RA
11:19 48.2 °F 44.2 °F 29.7 in West 25 mph 17 mph 86% 0.02 in 21.00 W/m2 BKN
11:24 48.4 °F 44.2 °F 29.7 in West 21.9 mph 14.9 mph 86% 0.02 in 28.00 W/m2 BKN
11:29 48.4 °F 44.2 °F 29.7 in WSW 27.6 mph 17 mph 86% 0.02 in 21.00 W/m2 BKN
11:34 48.4 °F 44.4 °F 29.7 in WSW 23 mph 16.9 mph 86% 0.01 in 32.00 W/m2 BKN
11:39 48.7 °F 44.8 °F 29.7 in WSW 28.8 mph 16.1 mph 86% 0.02 in 44.00 W/m2 RA
11:44 48.7 °F 44.8 °F 29.7 in West 20.7 mph 15.8 mph 86% 0.02 in 39.00 W/m2 RA
11:49 48.9 °F 45 °F 29.7 in West 20.7 mph 13.8 mph 86% 0.02 in 35.00 W/m2 BKN
11:54 48.9 °F 45 °F 29.7 in WSW 23 mph 16.4 mph 86% 0.02 in 44.00 W/m2 BKN
11:59 49.1 °F 45.1 °F 29.7 in West 19.6 mph 17.2 mph 86% 0.02 in 39.00 W/m2 BKN
12:04 49.3 °F 45.1 °F 29.7 in WNW 19.6 mph 16.2 mph 86% 0.02 in 46.00 W/m2 BKN
12:09 49.3 °F 45.3 °F 29.7 in WNW 24.2 mph 15.8 mph 86% 0.01 in 44.00 W/m2 BKN
12:14 49.3 °F 45.3 °F 29.7 in WNW 27.6 mph 16.1 mph 86% 0.01 in 40.00 W/m2 BKN
12:19 49.5 °F 45.3 °F 29.7 in WNW 18.4 mph 14.5 mph 86% 0.01 in 39.00 W/m2 BKN
12:24 49.3 °F 45.3 °F 29.7 in West 20.7 mph 16.3 mph 86% 0.01 in 35.00 W/m2 BKN
12:29 49.5 °F 45.3 °F 29.7 in WNW 23 mph 17 mph 86% 0.01 in 49.00 W/m2 BKN
12:34 49.5 °F 45.3 °F 29.7 in West 21.9 mph 16.2 mph 86% 0.01 in 51.00 W/m2 BKN
12:39 49.5 °F 45.5 °F 29.7 in West 24.2 mph 14.1 mph 86% 0 in 72.00 W/m2 BKN
12:44 49.6 °F 45.3 °F 29.7 in West 27.6 mph 21.1 mph 85% 0 in 60.00 W/m2 BKN
12:49 49.6 °F 45.3 °F 29.7 in WSW 31.1 mph 19.5 mph 85% 0 in 54.00 W/m2 BKN
12:54 49.6 °F 45.3 °F 29.7 in West 29.9 mph 19.5 mph 85% 0 in 65.00 W/m2 BKN
12:59 49.6 °F 45.3 °F 29.7 in West 19.6 mph 13.5 mph 85% 0 in 58.00 W/m2 BKN
13:04 49.6 °F 45.3 °F 29.7 in WSW 21.9 mph 16.9 mph 85% 0 in 60.00 W/m2 BKN
13:09 49.6 °F 45.3 °F 29.6 in WSW 32.2 mph 16.6 mph 85% 0 in 86.00 W/m2 BKN
13:14 49.6 °F 45.3 °F 29.6 in WSW 25.3 mph 18.8 mph 85% 0 in 91.00 W/m2 BKN
13:19 49.6 °F 45.3 °F 29.6 in West 20.7 mph 16 mph 85% 0 in 81.00 W/m2 BKN
13:24 49.6 °F 45.3 °F 29.6 in West 23 mph 18.3 mph 85% 0 in 63.00 W/m2 BKN
13:29 49.6 °F 45.3 °F 29.6 in West 20.7 mph 16.7 mph 85% 0 in 62.00 W/m2 BKN
13:34 49.6 °F 45.3 °F 29.6 in West 27 mph 19 mph 85% 0 in 70.00 W/m2 BKN
13:39 49.5 °F 45.5 °F 29.6 in West 26.5 mph 17.2 mph 86% 0 in 62.00 W/m2 BKN
13:44 49.1 °F 45.1 °F 29.6 in NW 26.5 mph 17.5 mph 86% 0 in 51.00 W/m2 BKN
13:49 48.9 °F 45 °F 29.6 in WSW 23 mph 18.9 mph 86% 0.01 in 46.00 W/m2 RA
13:54 48.9 °F 45 °F 29.6 in WNW 21 mph 18.6 mph 86% 0.01 in 47.00 W/m2 RA
13:59 49.1 °F 45.1 °F 29.6 in West 25.3 mph 19.4 mph 86% 0.01 in 44.00 W/m2 BKN
14:04 49.3 °F 45.1 °F 29.6 in WNW 26.5 mph 16.6 mph 86% 0.01 in 35.00 W/m2 BKN
14:09 49.3 °F 45.1 °F 29.6 in West 26.5 mph 17.1 mph 86% 0.01 in 25.00 W/m2 BKN
14:14 49.3 °F 45.3 °F 29.6 in West 20.7 mph 15.9 mph 86% 0.01 in 25.00 W/m2 BKN
14:19 49.5 °F 45.3 °F 29.6 in West 23 mph 17.7 mph 86% 0.01 in 25.00 W/m2 BKN
14:24 49.3 °F 45.3 °F 29.6 in WSW 29 mph 18.1 mph 86% 0.01 in 28.00 W/m2 BKN
14:29 49.3 °F 45.3 °F 29.6 in West 32.2 mph 22.4 mph 86% 0.01 in 32.00 W/m2 BKN
14:34 49.5 °F 45.3 °F 29.6 in West 28.8 mph 21.6 mph 86% 0.01 in 30.00 W/m2 BKN
14:39 49.3 °F 45.3 °F 29.6 in WSW 24.2 mph 15.4 mph 86% 0.01 in 30.00 W/m2 BKN
14:44 49.3 °F 45.3 °F 29.6 in WSW 27.6 mph 17.8 mph 86% 0.01 in 26.00 W/m2 BKN
14:49 49.5 °F 45.1 °F 29.6 in WNW 25.3 mph 17.6 mph 85% 0 in 23.00 W/m2 BKN
14:54 49.5 °F 45.1 °F 29.6 in West 26.5 mph 15.1 mph 85% 0 in 21.00 W/m2 BKN
14:59 49.5 °F 45.1 °F 29.6 in West 24.2 mph 18 mph 85% 0 in 23.00 W/m2 BKN
15:04 49.5 °F 45.1 °F 29.6 in West 26.5 mph 16.7 mph 85% 0 in 25.00 W/m2 BKN
15:09 49.5 °F 45.1 °F 29.6 in West 18.4 mph 15.8 mph 85% 0 in 23.00 W/m2 BKN
15:14 49.5 °F 45.1 °F 29.6 in West 21.9 mph 15.1 mph 85% 0 in 25.00 W/m2 BKN
15:19 49.5 °F 45.1 °F 29.6 in WSW 21.9 mph 17.7 mph 85% 0 in 28.00 W/m2 BKN
15:24 49.6 °F 45.3 °F 29.6 in West 31.1 mph 20.3 mph 85% 0 in 32.00 W/m2 BKN
15:29 49.6 °F 45.3 °F 29.6 in West 25.3 mph 16.4 mph 85% 0 in 33.00 W/m2 BKN
15:34 49.6 °F 45.3 °F 29.6 in West 22 mph 17.2 mph 85% 0 in 33.00 W/m2 BKN
15:39 49.6 °F 45.3 °F 29.6 in West 26.5 mph 19.6 mph 85% 0 in 35.00 W/m2 BKN
15:44 49.6 °F 45.3 °F 29.6 in West 28.8 mph 20.5 mph 85% 0 in 40.00 W/m2 BKN
15:49 49.6 °F 45.3 °F 29.6 in West 29.9 mph 19.1 mph 85% 0 in 33.00 W/m2 BKN
15:54 49.6 °F 45.3 °F 29.6 in West 24.2 mph 20.9 mph 85% 0 in 28.00 W/m2 BKN
15:59 49.6 °F 45.3 °F 29.6 in West 27.6 mph 17.8 mph 85% 0 in 35.00 W/m2 BKN
16:04 49.6 °F 45.3 °F 29.6 in West 21.9 mph 16.5 mph 85% 0 in 28.00 W/m2 BKN
16:09 49.5 °F 45.1 °F 29.6 in West 29 mph 22.8 mph 85% 0 in 18.00 W/m2 BKN
16:14 49.5 °F 45 °F 29.6 in West 26.5 mph 19.4 mph 84% 0 in 9.00 W/m2 BKN
16:19 49.5 °F 45 °F 29.6 in West 26.5 mph 13.6 mph 84% 0 in 7.00 W/m2 BKN
16:24 49.5 °F 45 °F 29.6 in West 21 mph 16 mph 84% 0 in 7.00 W/m2 BKN
16:29 49.6 °F 45 °F 29.6 in NW 23 mph 18.8 mph 84% 0 in 5.00 W/m2 OVC
16:34 49.6 °F 45.1 °F 29.6 in West 23 mph 16.9 mph 84% 0 in 5.00 W/m2 BKN
16:39 49.8 °F 45.3 °F 29.6 in West 18.4 mph 14.9 mph 84% 0 in 0.00 W/m2 OVC
16:44 49.8 °F 45.1 °F 29.6 in West 32.2 mph 21.6 mph 84% 0 in 0.00 W/m2 OVC
16:49 49.3 °F 45 °F 29.6 in West 29.9 mph 20.9 mph 85% 0.01 in 0.00 W/m2 RA
16:54 48.9 °F 45 °F 29.6 in West 26 mph 22.2 mph 86% 0.01 in 0.00 W/m2 RA
16:59 48.9 °F 44.8 °F 29.6 in West 26.5 mph 21 mph 85% 0.01 in 0.00 W/m2
17:04 48.9 °F 44.8 °F 29.6 in WSW 25.3 mph 14.1 mph 85% 0.01 in 0.00 W/m2
17:09 49.3 °F 45 °F 29.6 in WNW 26.5 mph 21.7 mph 85% 0.02 in 0.00 W/m2 RA
17:14 49.3 °F 45 °F 29.6 in West 33.4 mph 17.1 mph 85% 0.02 in 0.00 W/m2 RA
17:19 49.5 °F 45.1 °F 29.6 in WSW 25.3 mph 19.5 mph 85% 0.02 in 0.00 W/m2
17:24 49.5 °F 45.1 °F 29.6 in West 29.9 mph 19.1 mph 85% 0.02 in 0.00 W/m2
17:29 49.5 °F 45.1 °F 29.6 in WNW 28.8 mph 19 mph 85% 0.02 in 0.00 W/m2
17:34 49.5 °F 45.1 °F 29.6 in WSW 26.5 mph 18.9 mph 85% 0.02 in 0.00 W/m2
17:39 49.6 °F 45.3 °F 29.6 in WSW 24.2 mph 17 mph 85% 0.02 in 0.00 W/m2
17:44 49.5 °F 45.1 °F 29.6 in West 29.9 mph 14.4 mph 85% 0.02 in 0.00 W/m2
17:49 49.5 °F 45.1 °F 29.6 in WSW 27.6 mph 20.8 mph 85% 0.01 in 0.00 W/m2
17:54 49.5 °F 45 °F 29.6 in West 23 mph 18.8 mph 84% 0.01 in 0.00 W/m2
17:59 49.6 °F 45 °F 29.6 in WNW 29.9 mph 22.4 mph 84% 0.01 in 0.00 W/m2
18:04 49.6 °F 45 °F 29.6 in WNW 26.5 mph 17 mph 84% 0.01 in 0.00 W/m2
18:09 49.6 °F 45 °F 29.6 in West 31.1 mph 17.7 mph 84% 0 in 0.00 W/m2 CLR
18:14 49.6 °F 45 °F 29.6 in WNW 24.2 mph 16.9 mph 84% 0 in 0.00 W/m2 CLR
18:19 49.5 °F 45 °F 29.6 in West 21.9 mph 17.3 mph 84% 0 in 0.00 W/m2 CLR
18:24 49.5 °F 45 °F 29.6 in WNW 24.2 mph 18.5 mph 84% 0 in 0.00 W/m2 CLR
18:29 49.5 °F 44.8 °F 29.6 in WNW 28.8 mph 18.4 mph 84% 0 in 0.00 W/m2 CLR
18:34 49.3 °F 44.6 °F 29.6 in NW 27.6 mph 16.7 mph 84% 0 in 0.00 W/m2 CLR
18:39 49.3 °F 44.8 °F 29.6 in West 25.3 mph 18 mph 84% 0 in 0.00 W/m2 CLR
18:44 49.5 °F 44.4 °F 29.6 in West 24.2 mph 17.4 mph 83% 0 in 0.00 W/m2 CLR
18:49 49.3 °F 44.2 °F 29.6 in West 19 mph 12 mph 83% 0 in 0.00 W/m2 CLR
18:54 49.1 °F 44.2 °F 29.6 in WNW 19 mph 13 mph 83% 0 in 0.00 W/m2 CLR
18:59 48.9 °F 44.1 °F 29.6 in NW 19.6 mph 10.9 mph 83% 0 in 0.00 W/m2 CLR
19:04 48.7 °F 43.9 °F 29.6 in NW 20 mph 16.6 mph 83% 0 in 0.00 W/m2 CLR
19:09 48.7 °F 43.9 °F 29.6 in West 19.6 mph 12.7 mph 83% 0 in 0.00 W/m2 CLR
19:14 48.7 °F 43.9 °F 29.6 in NW 21.9 mph 13 mph 83% 0 in 0.00 W/m2 CLR
19:19 48.7 °F 44.1 °F 29.6 in WNW 13.8 mph 11.5 mph 84% 0 in 0.00 W/m2 CLR
19:24 48.6 °F 43.9 °F 29.6 in WNW 20.7 mph 14.1 mph 84% 0 in 0.00 W/m2 CLR
19:29 48.4 °F 43.7 °F 29.6 in NW 16.1 mph 12.7 mph 84% 0 in 0.00 W/m2 CLR
19:34 48 °F 43.5 °F 29.6 in WNW 18 mph 15.8 mph 84% 0 in 0.00 W/m2 CLR
19:39 48 °F 43.5 °F 29.6 in WNW 21.9 mph 15.2 mph 84% 0 in 0.00 W/m2 CLR
19:44 48 °F 43.3 °F 29.6 in West 24 mph 17.3 mph 84% 0 in 0.00 W/m2 CLR
19:49 48 °F 43.3 °F 29.6 in NW 21.9 mph 13.5 mph 84% 0 in 0.00 W/m2 CLR
19:54 47.8 °F 43.2 °F 29.6 in WNW 19.6 mph 11.2 mph 84% 0 in 0.00 W/m2 CLR
19:59 47.7 °F 43.2 °F 29.6 in NW 20.7 mph 14 mph 84% 0 in 0.00 W/m2 CLR
20:04 47.7 °F 43.2 °F 29.6 in NW 21 mph 19.1 mph 84% 0 in 0.00 W/m2 CLR
20:09 47.8 °F 43 °F 29.6 in WNW 25.3 mph 17.7 mph 83% 0 in 0.00 W/m2 CLR
20:14 47.8 °F 43 °F 29.6 in NW 19.6 mph 12.7 mph 83% 0 in 0.00 W/m2 CLR
20:19 47.7 °F 42.8 °F 29.6 in NW 19.6 mph 14.4 mph 83% 0 in 0.00 W/m2 CLR
20:24 47.5 °F 42.6 °F 29.6 in NW 19.6 mph 12.1 mph 83% 0 in 0.00 W/m2 CLR
20:29 47.5 °F 42.4 °F 29.6 in NW 19.6 mph 12.1 mph 83% 0 in 0.00 W/m2 CLR
20:34 47.5 °F 42.8 °F 29.6 in NW 19.6 mph 13.4 mph 84% 0 in 0.00 W/m2 CLR
20:39 47.5 °F 42.8 °F 29.6 in WNW 16.1 mph 11.2 mph 84% 0 in 0.00 W/m2 CLR
20:44 47.3 °F 42.6 °F 29.6 in NW 18 mph 14.8 mph 84% 0 in 0.00 W/m2 CLR
20:49 47.3 °F 42.4 °F 29.6 in NW 17.3 mph 10.8 mph 83% 0 in 0.00 W/m2 CLR
20:54 47.1 °F 42.4 °F 29.6 in West 18.4 mph 12 mph 84% 0 in 0.00 W/m2 CLR
20:59 46.9 °F 42.4 °F 29.6 in NW 16.1 mph 11.7 mph 84% 0 in 0.00 W/m2 CLR
21:04 47.1 °F 42.4 °F 29.6 in NW 20.7 mph 13.4 mph 84% 0 in 0.00 W/m2 CLR
21:09 47.3 °F 42.4 °F 29.6 in WNW 18.4 mph 14.7 mph 83% 0 in 0.00 W/m2 CLR
21:14 47.5 °F 42.4 °F 29.6 in WNW 19.6 mph 13.4 mph 83% 0 in 0.00 W/m2 CLR
21:19 47.3 °F 42.4 °F 29.6 in WNW 26.5 mph 15.8 mph 83% 0 in 0.00 W/m2 CLR
21:24 47.1 °F 42.3 °F 29.6 in WNW 19.6 mph 16 mph 83% 0 in 0.00 W/m2 CLR
21:29 47.1 °F 42.3 °F 29.6 in NW 18.4 mph 11.4 mph 83% 0 in 0.00 W/m2 CLR
21:34 46.9 °F 42.1 °F 29.6 in NW 19.6 mph 15.1 mph 83% 0 in 0.00 W/m2 CLR
21:39 46.9 °F 41.7 °F 29.6 in WNW 21 mph 14.1 mph 82% 0 in 0.00 W/m2 CLR
21:44 46.9 °F 41.7 °F 29.6 in WNW 17.3 mph 14.5 mph 82% 0 in 0.00 W/m2 CLR
21:49 46.9 °F 41.7 °F 29.6 in WNW 18.4 mph 14.4 mph 82% 0 in 0.00 W/m2 CLR
21:54 46.9 °F 41.7 °F 29.6 in WNW 24.2 mph 14.5 mph 82% 0 in 0.00 W/m2 CLR
21:59 46.9 °F 41.7 °F 29.6 in NW 18.4 mph 13 mph 82% 0 in 0.00 W/m2 CLR
22:04 46.9 °F 41.7 °F 29.6 in WNW 19.6 mph 12.5 mph 82% 0 in 0.00 W/m2 CLR
22:09 46.9 °F 41.7 °F 29.6 in NW 21.9 mph 14.4 mph 82% 0 in 0.00 W/m2 CLR
22:14 47.1 °F 42.1 °F 29.6 in WNW 18.4 mph 12.3 mph 82% 0 in 0.00 W/m2 CLR
22:19 47.1 °F 42.1 °F 29.6 in NW 19.6 mph 14.7 mph 82% 0 in 0.00 W/m2 CLR
22:24 47.1 °F 41.9 °F 29.7 in NW 16.1 mph 14.5 mph 82% 0 in 0.00 W/m2 CLR
22:29 46.9 °F 41.7 °F 29.7 in NW 18.4 mph 12.2 mph 82% 0 in 0.00 W/m2 CLR
22:34 47.1 °F 41.9 °F 29.7 in WNW 21.9 mph 13.8 mph 82% 0 in 0.00 W/m2 CLR
22:39 46.9 °F 42.1 °F 29.7 in WNW 17.3 mph 16.3 mph 83% 0 in 0.00 W/m2 CLR
22:44 46.9 °F 42.1 °F 29.7 in WNW 16.1 mph 11.6 mph 83% 0 in 0.00 W/m2 CLR
22:49 47.1 °F 41.9 °F 29.7 in WNW 21.9 mph 12.3 mph 82% 0 in 0.00 W/m2 CLR
22:54 47.1 °F 42.1 °F 29.7 in NW 21.9 mph 14.3 mph 82% 0 in 0.00 W/m2 CLR
22:59 47.1 °F 41.9 °F 29.7 in NW 19.6 mph 13.5 mph 82% 0 in 0.00 W/m2 CLR
23:04 47.1 °F 41.9 °F 29.7 in NW 24.2 mph 15.7 mph 82% 0 in 0.00 W/m2 CLR
23:09 47.1 °F 42.1 °F 29.7 in NW 19.6 mph 13.1 mph 82% 0 in 0.00 W/m2 CLR
23:14 47.1 °F 41.9 °F 29.7 in WNW 23 mph 16.3 mph 82% 0 in 0.00 W/m2 CLR
23:19 47.1 °F 42.1 °F 29.7 in WNW 25.3 mph 14.7 mph 82% 0 in 0.00 W/m2 CLR
23:24 47.1 °F 42.1 °F 29.7 in WNW 17 mph 13.1 mph 82% 0 in 0.00 W/m2 CLR
23:29 46.9 °F 41.7 °F 29.7 in NW 18.4 mph 12.4 mph 82% 0 in 0.00 W/m2 CLR
23:34 46.8 °F 41.5 °F 29.7 in WNW 16.1 mph 10.9 mph 82% 0 in 0.00 W/m2 CLR
23:39 46.4 °F 41.2 °F 29.7 in NW 13 mph 10.3 mph 82% 0 in 0.00 W/m2 CLR
23:44 46.6 °F 41.5 °F 29.7 in WNW 15 mph 11.5 mph 83% 0 in 0.00 W/m2 CLR
23:49 46.6 °F 41.4 °F 29.7 in WNW 17.3 mph 12.1 mph 82% 0 in 0.00 W/m2 CLR
23:54 46.6 °F 41.7 °F 29.7 in WNW 15 mph 11.6 mph 83% 0 in 0.00 W/m2 CLR
23:59 46.6 °F 41.5 °F 29.7 in NW 19.6 mph 14.5 mph 83% 0 in 0.00 W/m2 CLR
Juneau County Weather